Location: Acequia del Cap
(41.7000°N, 0.6167°E)
Time: 15:26:42
(UTC+00:00)

CZ-4C R/B - Pass Details

Date: 07 August 2020
Orbit: 409 x 491 km, 97.7° (Epoch: 23 September)

Event Time Altitude Azimuth Distance (km) Brightness Sun altitude
Exits shadow 03:54:14 - 186° (S) 1,669 5.4 -11.3°
Reaches altitude 10° 03:54:40 10° 188° (S) 1,490 5.1 -11.2°
Maximum altitude 03:57:42 42° 261° (W) 617 3.2 -10.8°
Drops below altitude 10° 04:00:50 10° 334° (NNW) 1,536 5.7 -10.3°
Sets 04:02:57 0° 341° (NNW) 2,423 6.8 -9.9°
